JBU1687 KPBI-KPVD

Flight info

Callsign JBU1687
Flight time N/A
Altitude 37000
Route SLIDZ3 LENDS PELCN Y309 FLRDA SAGGY CHIEZ Q161 KALDA ZJAAY Q167 ORCHA JORDN JORDN2
Aircraft A320/M-SDFGHIJ4RWX/LB1D1

Departure

Time 2026-05-09 09:40
Airport Palm Beach International Airport (KPBI)

Arrival

Time N/A
Airport Rhode Island T. F. Green International Airport (KPVD)
Time Latitude Longitude Altitude Speed Heading
2026-05-09 09:28 26.68530 -80.08933 35 ft 0 kts
2026-05-09 09:32 26.68481 -80.08930 34 ft 4 kts 346°
2026-05-09 09:32 26.68456 -80.08920 34 ft 4 kts 322°
2026-05-09 09:32 26.68444 -80.08901 34 ft 1 kts 272°
2026-05-09 09:36 26.68390 -80.09100 34 ft 10 kts 182°
2026-05-09 09:36 26.68360 -80.09157 34 ft 11 kts 274°
2026-05-09 09:36 26.68365 -80.09250 34 ft 13 kts 273°
2026-05-09 09:37 26.68371 -80.09361 34 ft 15 kts 273°
2026-05-09 09:37 26.68377 -80.09489 34 ft 18 kts 272°
2026-05-09 09:37 26.68383 -80.09635 34 ft 20 kts 272°
2026-05-09 09:37 26.68390 -80.09797 34 ft 22 kts 273°
2026-05-09 09:38 26.68397 -80.09976 34 ft 24 kts 272°
2026-05-09 09:38 26.68405 -80.10171 34 ft 26 kts 272°
2026-05-09 09:38 26.68414 -80.10381 34 ft 28 kts 272°
2026-05-09 09:38 26.68422 -80.10605 34 ft 29 kts 273°
2026-05-09 09:39 26.68428 -80.10740 34 ft 15 kts 273°
2026-05-09 09:39 26.68422 -80.10797 34 ft 6 kts 213°
2026-05-09 09:39 26.68370 -80.10805 34 ft 9 kts 185°
2026-05-09 09:39 26.68320 -80.10796 34 ft 7 kts 121°
2026-05-09 09:40 26.68311 -80.10643 34 ft 48 kts 92°
2026-05-09 09:40 26.68283 -80.09986 35 ft 120 kts 93°
2026-05-09 09:40 26.68234 -80.08834 78 ft 169 kts 92°
2026-05-09 09:40 26.68170 -80.07562 796 ft 160 kts 95°
2026-05-09 09:41 26.68059 -80.06324 1464 ft 161 kts 94°
2026-05-09 09:41 26.68191 -80.05056 1833 ft 175 kts 68°
2026-05-09 09:41 26.68789 -80.03816 2140 ft 192 kts 59°
2026-05-09 09:41 26.69490 -80.02491 2556 ft 204 kts 62°
2026-05-09 09:42 26.70180 -80.01035 2935 ft 221 kts 65°
2026-05-09 09:42 26.70891 -79.99440 3417 ft 236 kts 65°
2026-05-09 09:42 26.71675 -79.97760 3965 ft 251 kts 60°
2026-05-09 09:42 26.72757 -79.96158 4534 ft 266 kts 50°
2026-05-09 09:43 26.74024 -79.94584 5160 ft 277 kts 48°
2026-05-09 09:43 26.75328 -79.92976 5952 ft 281 kts 49°
2026-05-09 09:43 26.76601 -79.91339 6738 ft 284 kts 50°
2026-05-09 09:43 26.77889 -79.89644 7502 ft 288 kts 50°
2026-05-09 09:44 26.79196 -79.87933 8247 ft 291 kts 50°
2026-05-09 09:44 26.80528 -79.86211 8959 ft 294 kts 49°
2026-05-09 09:44 26.81877 -79.84467 9641 ft 299 kts 49°
2026-05-09 09:44 26.83250 -79.82691 10250 ft 305 kts 49°
2026-05-09 09:45 26.84665 -79.80854 10669 ft 319 kts 49°
2026-05-09 09:45 26.86143 -79.78936 11058 ft 332 kts 49°
2026-05-09 09:45 26.87662 -79.76965 11403 ft 345 kts 49°
2026-05-09 09:45 26.89260 -79.74888 11723 ft 359 kts 49°
2026-05-09 09:46 26.90916 -79.72733 12020 ft 372 kts 49°
2026-05-09 09:46 26.92672 -79.70529 12320 ft 384 kts 45°
2026-05-09 09:46 26.94596 -79.68425 12835 ft 389 kts 43°
2026-05-09 09:46 26.96577 -79.66345 13382 ft 392 kts 41°
2026-05-09 09:47 26.98591 -79.64266 13920 ft 395 kts 41°
2026-05-09 09:47 27.00617 -79.62168 14444 ft 399 kts 41°
2026-05-09 09:47 27.02652 -79.60031 14963 ft 402 kts 41°
2026-05-09 09:47 27.04665 -79.57898 15458 ft 406 kts 41°
2026-05-09 09:48 27.06721 -79.55710 15952 ft 409 kts 41°
2026-05-09 09:48 27.08795 -79.53511 16449 ft 412 kts 41°
2026-05-09 09:48 27.10894 -79.51298 16915 ft 416 kts 40°
2026-05-09 09:48 27.13008 -79.49068 17377 ft 419 kts 40°
2026-05-09 09:49 27.15138 -79.46820 17843 ft 422 kts 40°
2026-05-09 09:49 27.17285 -79.44546 18313 ft 425 kts 40°
2026-05-09 09:49 27.19444 -79.42259 18773 ft 428 kts 40°
2026-05-09 09:49 27.21616 -79.39954 19218 ft 431 kts 40°
2026-05-09 09:50 27.23804 -79.37629 19658 ft 434 kts 40°
2026-05-09 09:50 27.25974 -79.35320 20089 ft 437 kts 39°
2026-05-09 09:50 27.28186 -79.32966 20524 ft 439 kts 39°
2026-05-09 09:50 27.30413 -79.30596 20939 ft 442 kts 39°
2026-05-09 09:51 27.32656 -79.28213 21350 ft 444 kts 39°
2026-05-09 09:51 27.34911 -79.25820 21747 ft 447 kts 39°
2026-05-09 09:51 27.37177 -79.23410 22130 ft 450 kts 39°
2026-05-09 09:51 27.39452 -79.20985 22513 ft 452 kts 39°
2026-05-09 09:52 27.41741 -79.18544 22882 ft 454 kts 39°
2026-05-09 09:52 27.44008 -79.16123 23242 ft 456 kts 39°
2026-05-09 09:52 27.46318 -79.13657 23594 ft 459 kts 38°
2026-05-09 09:52 27.48638 -79.11180 23935 ft 461 kts 38°
2026-05-09 09:53 27.50967 -79.08690 24272 ft 463 kts 38°
2026-05-09 09:53 27.53310 -79.06181 24586 ft 466 kts 38°
2026-05-09 09:53 27.55666 -79.03658 24899 ft 468 kts 38°
2026-05-09 09:53 27.58033 -79.01126 25214 ft 470 kts 38°
2026-05-09 09:54 27.60413 -78.98580 25505 ft 473 kts 38°
2026-05-09 09:54 27.62802 -78.96020 25796 ft 475 kts 38°
2026-05-09 09:54 27.65251 -78.93594 26072 ft 473 kts 31°
2026-05-09 09:54 27.68026 -78.91673 26350 ft 465 kts 19°
2026-05-09 09:55 27.71043 -78.90492 26624 ft 455 kts
2026-05-09 09:55 27.74155 -78.89969 26910 ft 451 kts 359°
2026-05-09 09:55 27.77277 -78.89620 27189 ft 452 kts 358°
2026-05-09 09:55 27.80414 -78.89284 27467 ft 454 kts 359°
2026-05-09 09:56 27.83565 -78.88894 27745 ft 457 kts 360°
2026-05-09 09:56 27.86735 -78.88439 28023 ft 460 kts
2026-05-09 09:56 27.89869 -78.87958 28297 ft 462 kts
2026-05-09 09:56 27.93060 -78.87476 28554 ft 464 kts
2026-05-09 09:57 27.96268 -78.87015 28802 ft 466 kts 360°
2026-05-09 09:57 27.99491 -78.86575 29061 ft 467 kts 360°
2026-05-09 09:57 28.02726 -78.86138 29302 ft 470 kts 359°
2026-05-09 09:57 28.05979 -78.85691 29534 ft 472 kts 360°
2026-05-09 09:58 28.09247 -78.85229 29784 ft 474 kts 360°
2026-05-09 09:58 28.12527 -78.84758 30113 ft 474 kts 360°
2026-05-09 09:58 28.15752 -78.84294 30446 ft 473 kts 360°
2026-05-09 09:58 28.19013 -78.83830 30791 ft 472 kts 359°
2026-05-09 09:59 28.22270 -78.83371 31135 ft 471 kts 359°
2026-05-09 09:59 28.25525 -78.82915 31473 ft 471 kts 359°
2026-05-09 09:59 28.28769 -78.82458 31811 ft 470 kts 359°
2026-05-09 09:59 28.32011 -78.81998 32143 ft 469 kts 359°
2026-05-09 10:00 28.35245 -78.81537 32472 ft 468 kts 359°
2026-05-09 10:00 28.38475 -78.81078 32801 ft 467 kts 359°
2026-05-09 10:00 28.41700 -78.80621 33121 ft 467 kts 359°
2026-05-09 10:00 28.44877 -78.80171 33427 ft 466 kts 359°
2026-05-09 10:01 28.48092 -78.79717 33690 ft 466 kts 359°
2026-05-09 10:01 28.51308 -78.79260 34002 ft 465 kts 359°
2026-05-09 10:01 28.54522 -78.78800 34299 ft 465 kts 359°
2026-05-09 10:01 28.57727 -78.78340 34595 ft 464 kts 359°
2026-05-09 10:02 28.60920 -78.77883 34920 ft 462 kts 358°
2026-05-09 10:02 28.64111 -78.77429 35191 ft 461 kts 358°
2026-05-09 10:02 28.67292 -78.76978 35462 ft 460 kts 358°
2026-05-09 10:02 28.70464 -78.76525 35761 ft 459 kts 358°
2026-05-09 10:03 28.73585 -78.76080 36003 ft 458 kts 358°
2026-05-09 10:03 28.76745 -78.75630 36233 ft 458 kts 358°
2026-05-09 10:03 28.79902 -78.75179 36491 ft 456 kts 358°
2026-05-09 10:03 28.83043 -78.74728 36731 ft 455 kts 357°
2026-05-09 10:04 28.86187 -78.74276 36930 ft 455 kts 357°
2026-05-09 10:04 28.92453 -78.73378 36989 ft 453 kts 357°
2026-05-09 10:05 28.98715 -78.72480 36987 ft 453 kts 357°
2026-05-09 10:05 29.04931 -78.71588 36986 ft 453 kts 357°
2026-05-09 10:06 29.11188 -78.70686 36986 ft 454 kts 357°
2026-05-09 10:06 29.17502 -78.69782 37022 ft 459 kts 357°
2026-05-09 10:07 29.23827 -78.68864 37014 ft 457 kts 357°
2026-05-09 10:07 29.30114 -78.67952 37014 ft 453 kts 356°
2026-05-09 10:08 29.36306 -78.67002 37005 ft 455 kts
2026-05-09 10:08 29.42466 -78.65012 36965 ft 462 kts
2026-05-09 10:09 29.48563 -78.62683 36926 ft 461 kts
2026-05-09 10:09 29.54698 -78.60456 36967 ft 466 kts
2026-05-09 10:10 29.60886 -78.58275 36977 ft 469 kts
2026-05-09 10:10 29.67109 -78.56005 36984 ft 469 kts
2026-05-09 10:11 29.73331 -78.53735 36988 ft 469 kts
2026-05-09 10:11 29.79558 -78.51483 36996 ft 469 kts
2026-05-09 10:12 29.85777 -78.49224 36985 ft 469 kts
2026-05-09 10:12 29.91966 -78.46970 36946 ft 470 kts
2026-05-09 10:13 29.98205 -78.44693 36943 ft 471 kts
2026-05-09 10:13 30.04449 -78.42412 36960 ft 471 kts
2026-05-09 10:14 30.10694 -78.40135 36978 ft 471 kts
2026-05-09 10:14 30.16961 -78.38497 37002 ft 455 kts 357°
2026-05-09 10:15 30.23171 -78.37622 37022 ft 451 kts 355°
2026-05-09 10:15 30.29406 -78.36765 37022 ft 452 kts 356°
2026-05-09 10:16 30.35645 -78.35790 36990 ft 452 kts 356°
2026-05-09 10:16 30.41884 -78.34818 36948 ft 455 kts 358°
2026-05-09 10:17 30.48096 -78.33453 36935 ft 459 kts
2026-05-09 10:17 30.54345 -78.31947 36957 ft 460 kts
2026-05-09 10:18 30.60582 -78.30479 36952 ft 455 kts 359°
2026-05-09 10:18 30.66798 -78.29047 36954 ft 456 kts 359°
2026-05-09 10:19 30.73000 -78.27597 36956 ft 459 kts 359°
2026-05-09 10:19 30.79269 -78.26119 36970 ft 460 kts 359°
2026-05-09 10:20 30.85545 -78.24644 37020 ft 460 kts 359°
2026-05-09 10:20 30.91810 -78.23177 37065 ft 463 kts 359°
2026-05-09 10:21 30.98131 -78.21721 37032 ft 467 kts 359°
2026-05-09 10:21 31.04423 -78.20333 37007 ft 457 kts 358°
2026-05-09 10:22 31.10681 -78.18969 36999 ft 458 kts 358°
2026-05-09 10:22 31.16934 -78.17569 36994 ft 458 kts 358°
2026-05-09 10:23 31.23189 -78.16169 36994 ft 458 kts 358°
2026-05-09 10:23 31.29403 -78.14786 36990 ft 457 kts 358°
2026-05-09 10:24 31.35651 -78.13389 36986 ft 457 kts 358°
2026-05-09 10:24 31.41903 -78.11988 36975 ft 457 kts 357°
2026-05-09 10:25 31.48162 -78.10845 36985 ft 458 kts 355°
2026-05-09 10:25 31.54411 -78.09808 37031 ft 455 kts 354°
2026-05-09 10:26 31.60666 -78.08738 37043 ft 453 kts 355°
2026-05-09 10:26 31.66879 -78.07665 37033 ft 450 kts 354°
2026-05-09 10:27 31.73063 -78.06611 36992 ft 448 kts 354°
2026-05-09 10:27 31.79224 -78.05555 36954 ft 447 kts 354°
2026-05-09 10:28 31.85377 -78.04495 36960 ft 447 kts 354°
2026-05-09 10:28 31.91497 -78.03443 36957 ft 448 kts 354°
2026-05-09 10:29 31.97683 -78.02378 36958 ft 450 kts 354°
2026-05-09 10:29 32.03895 -78.01308 36960 ft 452 kts 354°
2026-05-09 10:30 32.09076 -78.00412 36981 ft 453 kts 354°
2026-05-09 10:30 32.16324 -77.99154 37039 ft 453 kts 354°
2026-05-09 10:31 32.22564 -77.98073 37034 ft 453 kts 354°
2026-05-09 10:31 32.27738 -77.97173 37044 ft 452 kts 354°
2026-05-09 10:32 32.33959 -77.96094 37013 ft 451 kts 354°
2026-05-09 10:32 32.41185 -77.94837 36965 ft 452 kts 354°
2026-05-09 10:33 32.46391 -77.93929 36957 ft 452 kts 354°
2026-05-09 10:33 32.52569 -77.92853 36955 ft 452 kts 354°
2026-05-09 10:34 32.58793 -77.91763 36958 ft 452 kts 354°
2026-05-09 10:34 32.68122 -77.90131 36973 ft 452 kts 354°
2026-05-09 10:35 32.74309 -77.89049 36958 ft 453 kts 354°
2026-05-09 10:35 32.80554 -77.87950 36972 ft 454 kts 354°
2026-05-09 10:36 32.86798 -77.86852 37031 ft 453 kts 354°
2026-05-09 10:36 32.93040 -77.85755 37045 ft 454 kts 354°
2026-05-09 10:37 32.99280 -77.84653 37041 ft 453 kts 354°
2026-05-09 10:37 33.05469 -77.83556 37036 ft 452 kts 354°
2026-05-09 10:38 33.11693 -77.82457 36996 ft 452 kts 354°
2026-05-09 10:38 33.17918 -77.81357 36955 ft 452 kts 354°
2026-05-09 10:39 33.24142 -77.80254 36956 ft 452 kts 354°
2026-05-09 10:39 33.30327 -77.79153 36962 ft 452 kts 354°
2026-05-09 10:40 33.36554 -77.78045 36954 ft 453 kts 354°
2026-05-09 10:40 33.42791 -77.76937 36959 ft 454 kts 354°
2026-05-09 10:41 33.49044 -77.75819 36980 ft 454 kts 354°
2026-05-09 10:41 33.55250 -77.74708 37038 ft 454 kts 354°
2026-05-09 10:42 33.61498 -77.73593 37045 ft 454 kts 354°
2026-05-09 10:42 33.67748 -77.72473 37046 ft 455 kts 354°
2026-05-09 10:43 33.74013 -77.71156 37045 ft 457 kts 356°
2026-05-09 10:43 33.80271 -77.69774 37032 ft 457 kts 356°
2026-05-09 10:44 33.86486 -77.68420 37006 ft 457 kts 355°
2026-05-09 10:44 33.92745 -77.67060 36984 ft 457 kts 356°
2026-05-09 10:46 34.08356 -77.63643 36960 ft 458 kts 356°
2026-05-09 10:46 34.14635 -77.62264 36954 ft 459 kts 356°
2026-05-09 10:47 34.20921 -77.60883 36984 ft 459 kts 356°
2026-05-09 10:47 34.27210 -77.59497 37038 ft 459 kts 356°
2026-05-09 10:48 34.33495 -77.58115 37047 ft 459 kts 356°
2026-05-09 10:48 34.39746 -77.56731 37047 ft 460 kts 356°
2026-05-09 10:49 34.46028 -77.55339 37048 ft 459 kts 356°
2026-05-09 10:49 34.52317 -77.53690 37008 ft 475 kts
2026-05-09 10:49 34.55424 -77.52130 36988 ft 488 kts 12°
2026-05-09 10:50 34.58482 -77.50285 36973 ft 493 kts 15°